SL-8 R/B

Satellite information

Favourite Embed

Satellite Type and Status

ROCKET BODYIN ORBIT

Key statistics

Satellite SL-8 R/B at a glance.

Uptime

14083

Days in orbit

Revolutions

≈ 13.7

Per day

Orbit

LEO

Low Earth Orbit

Inclination

82.9

Latest

Satellite identification and parameters

Extended collection of information and parameters for SL-8 R/B.

Object identification

Identified? True

Debris? False

Object name: SL-8 R/B

International designator: 1986-100B

Object number (NORAD): 17240

Object ID (CCSDS): 17240

Country: COMMONWEALTH OF INDEPENDENT STATES (CIS)

Current information (Y/N): Y

RCS size: LARGE

Orbital parameters

Period: 104.785 minutes

Inclination: 82.9309 deg

SMA: 7362.496 km

Apoapsis: 1005.3 km

Periapsis: 963.422 km

RAAN: 28.1768 deg

Eccentricy: 0.002844

Argument of periapsis: 304.5288 deg

Mean anomaly: 164.502 deg

Mean motion: 13.74248155 rev/day

Mean motion (dot): 0.00000081 rev/day2

B* drag term: 0.000069937 1/REarth

Two-line elements (TLE)

Creation date: July 8, 2025, 2:27 a.m.

Reference frame: TEME

Reference center: EARTH

Epoch: July 7, 2025, 10:52 p.m. UTC

TLE line 0: 0 SL-8 R/B

TLE line 1: 1 17240U 86100B 25188.95339080 .00000081 00000-0 69937-4 0 9997

TLE line 2: 2 17240 82.9309 28.1768 0028440 304.5288 164.5020 13.74248155574067

Live tracking on map

Real-time ground track for satellite SL-8 R/B.

In-orbit conjunctions

A list of the most updated potential collisions computed for object SL-8 R/B.

Target Orbit TCA Probability of collision Miss distance Type
COSMOS 1704 LEO 2024-12-03 23:04:25 0.0003391192 236.0 (m) PAYLOAD
COSMOS 1275 DEB LEO 2024-11-27 11:36:57 0.0001208286 890.0 (m) DEBRIS

Associated space launch

Navigation satellite providing location information for the Tsiklon-B navigation system

SL-8 R/B was lifted into orbit during the mission ‘Kosmos-3M | Parus 57’, on board a Kosmos-3M space rocket.

The launch took place on Dec. 17, 1986, 5:02 p.m. from 132/1 (132L).

For more information about the launch, click the button.

Launch to space Kosmos-3M | Parus 57
Kosmos-3M | Parus 57

Agency: N/A

Status: Launch Successful

Launch date: Dec. 17, 1986, 5:02 p.m. UTC

Rocket: Kosmos-3M

Launch pad: 132/1 (132L)

Location: Plesetsk Cosmodrome, Russian Federation

...

Latest news about this satellite

There are no fresh news available about this satellite. Check back as we update our databases every day.


Newsletter sign-up

Weekly statistics, charts and insights to help you stay on top of the space industry.